This is the latest recevied weather packets stored in our database for station/object WL7CLI. If no packets are shown the sender has not sent any weather packets the latest 10 day(s).
| Time | Temp. | Humidity | Pressure | Rain* | Wind** | Luminosity | Snow |
|---|---|---|---|---|---|---|---|
| 1778003904 | 14.44° C | 40% | 1011.2 hPa | 0 mm | - | - | - |
| 1778003899 | 14.44° C | 40% | 1011.4 hPa | 0 mm | - | - | - |
| 1778002699 | 13.89° C | 40% | 1011.7 hPa | 0 mm | - | - | - |
| 1778002572 | 13.89° C | 43% | 1011.7 hPa | 0 mm | - | - | - |
| 1778002104 | 13.89° C | 43% | 1011.8 hPa | 0 mm | - | - | - |
| 1778001498 | 13.89° C | 40% | 1011.8 hPa | 0 mm | - | - | - |
| 1778001375 | 13.89° C | 41% | 1011.8 hPa | 0 mm | - | - | - |
| 1778000304 | 13.89° C | 43% | 1011.9 hPa | 0 mm | - | - | - |
| 1778000300 | 13.89° C | 43% | 1011.9 hPa | 0 mm | - | - | - |
| 1778000175 | 13.89° C | 42% | 1011.8 hPa | 0 mm | - | - | - |
| 1777999099 | 13.33° C | 43% | 1011.9 hPa | 0 mm | - | - | - |
| 1777998974 | 13.33° C | 42% | 1011.9 hPa | 0 mm | - | - | - |
| 1777998504 | 13.33° C | 43% | 1011.6 hPa | 0 mm | - | - | - |
| 1777997899 | 12.78° C | 45% | 1011.7 hPa | 0 mm | - | - | - |
| 1777997774 | 12.78° C | 44% | 1011.8 hPa | 0 mm | - | - | - |
| 1777996704 | 12.22° C | 44% | 1011.4 hPa | 0 mm | - | - | - |
| 1777996698 | 12.22° C | 44% | 1011.5 hPa | 0 mm | - | - | - |
| 1777996574 | 12.22° C | 46% | 1011.6 hPa | 0 mm | - | - | - |
| 1777995500 | 12.22° C | 43% | 1011.5 hPa | 0 mm | - | - | - |
| 1777995375 | 12.22° C | 45% | 1011.6 hPa | 0 mm | - | - | - |
| 1777994904 | 12.22° C | 44% | 1011.5 hPa | 0 mm | - | - | - |
| 1777994299 | 12.22° C | 50% | 1011.5 hPa | 0 mm | - | - | - |
| 1777994175 | 11.67° C | 48% | 1011.4 hPa | 0 mm | - | - | - |
| 1777993105 | 11.67° C | 45% | 1011.4 hPa | 0 mm | - | - | - |
| 1777993098 | 11.67° C | 45% | 1011.5 hPa | 0 mm | - | - | - |
* Rain latest hour (hover to see other rain measurements)
** Current wind speed in m/s (hover to see current wind gust speed)